Time,TemperatureF,DewpointF,PressureIn,WindDirection,WindDirectionDegrees,WindSpeedMPH,WindSpeedGustMPH,Humidity,HourlyPrecipIn,Conditions,Clouds,dailyrainin,SoftwareType,DateUTC
2013-08-09 00:22:00,68.0,66.0,29.92,NNE,25,0.0,-999.0,93,-99.99,,,-99.99,,2013-08-09 04:22:00,
2013-08-09 00:33:00,68.0,66.0,29.91,NNE,25,0.0,-999.0,93,-99.99,,,-99.99,,2013-08-09 04:33:00,
2013-08-09 01:02:00,67.0,65.0,29.92,NNE,25,1.0,-999.0,92,-99.99,,,-99.99,,2013-08-09 05:02:00,
2013-08-09 01:22:00,67.0,64.0,29.92,NNE,25,0.0,-999.0,91,-99.99,,,-99.99,,2013-08-09 05:22:00,
2013-08-09 01:32:00,67.0,64.0,29.92,NNE,25,0.0,-999.0,90,-99.99,,,-99.99,,2013-08-09 05:32:00,
2013-08-09 01:43:00,67.0,64.0,29.92,NNE,25,0.0,-999.0,90,-99.99,,,-99.99,,2013-08-09 05:43:00,
2013-08-09 01:52:00,67.0,64.0,29.92,NNE,25,0.0,-999.0,90,-99.99,,,-99.99,,2013-08-09 05:52:00,
2013-08-09 02:01:00,67.0,64.0,29.91,NNE,25,0.0,-999.0,90,-99.99,,,-99.99,,2013-08-09 06:01:00,
2013-08-09 02:22:00,67.0,64.0,29.92,NNE,25,0.0,-999.0,91,-99.99,,,-99.99,,2013-08-09 06:22:00,
2013-08-09 02:32:00,66.0,63.0,29.91,NNE,25,0.0,-999.0,91,-99.99,,,-99.99,,2013-08-09 06:32:00,
2013-08-09 02:43:00,66.0,63.0,29.91,NNE,25,0.0,-999.0,91,-99.99,,,-99.99,,2013-08-09 06:43:00,
2013-08-09 02:52:00,66.0,63.0,29.91,NNE,25,0.0,-999.0,91,-99.99,,,-99.99,,2013-08-09 06:52:00,
2013-08-09 03:01:00,65.0,62.0,29.90,NNE,25,0.0,-999.0,91,-99.99,,,-99.99,,2013-08-09 07:01:00,
2013-08-09 03:12:00,66.0,63.0,29.90,NNE,25,0.0,-999.0,91,-99.99,,,-99.99,,2013-08-09 07:12:00,
2013-08-09 03:22:00,66.0,63.0,29.90,NNE,25,0.0,-999.0,91,-99.99,,,-99.99,,2013-08-09 07:22:00,
2013-08-09 03:33:00,66.0,63.0,29.91,NNE,25,0.0,-999.0,91,-99.99,,,-99.99,,2013-08-09 07:33:00,
2013-08-09 03:43:00,65.0,63.0,29.91,NNE,25,0.0,-999.0,92,-99.99,,,-99.99,,2013-08-09 07:43:00,
2013-08-09 03:53:00,65.0,63.0,29.91,NNE,25,0.0,-999.0,92,-99.99,,,-99.99,,2013-08-09 07:53:00,
2013-08-09 04:02:00,65.0,63.0,29.91,NNE,25,0.0,-999.0,93,-99.99,,,-99.99,,2013-08-09 08:02:00,
2013-08-09 04:12:00,65.0,63.0,29.91,NNE,25,0.0,-999.0,94,-99.99,,,-99.99,,2013-08-09 08:12:00,
2013-08-09 04:22:00,65.0,63.0,29.91,NNE,25,0.0,-999.0,94,-99.99,,,-99.99,,2013-08-09 08:22:00,
2013-08-09 04:32:00,65.0,63.0,29.91,NNE,25,0.0,-999.0,94,-99.99,,,-99.99,,2013-08-09 08:32:00,
2013-08-09 04:43:00,65.0,63.0,29.91,NNE,25,0.0,-999.0,94,-99.99,,,-99.99,,2013-08-09 08:43:00,
2013-08-09 04:53:00,65.0,63.0,29.91,NNE,25,0.0,-999.0,94,-99.99,,,-99.99,,2013-08-09 08:53:00,
2013-08-09 05:02:00,65.0,63.0,29.91,NNE,25,0.0,-999.0,94,-99.99,,,-99.99,,2013-08-09 09:02:00,
2013-08-09 05:22:00,64.0,62.0,29.91,NNE,25,0.0,-999.0,94,-99.99,,,-99.99,,2013-08-09 09:22:00,
2013-08-09 05:43:00,64.0,62.0,29.91,NNE,25,0.0,-999.0,94,-99.99,,,-99.99,,2013-08-09 09:43:00,
2013-08-09 05:52:00,64.0,62.0,29.91,NNE,25,0.0,-999.0,94,-99.99,,,-99.99,,2013-08-09 09:52:00,
2013-08-09 06:01:00,64.0,62.0,29.92,NNE,25,0.0,-999.0,94,-99.99,,,-99.99,,2013-08-09 10:01:00,
2013-08-09 06:12:00,64.0,63.0,29.92,NNE,25,0.0,-999.0,95,-99.99,,,-99.99,,2013-08-09 10:12:00,
2013-08-09 06:22:00,64.0,63.0,29.92,NNE,25,0.0,-999.0,95,-99.99,,,-99.99,,2013-08-09 10:22:00,
2013-08-09 06:43:00,63.0,62.0,29.92,NNE,25,0.0,-999.0,95,-99.99,,,-99.99,,2013-08-09 10:43:00,
2013-08-09 06:53:00,63.0,62.0,29.92,NNE,25,0.0,-999.0,95,-99.99,,,-99.99,,2013-08-09 10:53:00,
2013-08-09 07:22:00,63.0,62.0,29.92,NNE,25,0.0,-999.0,95,-99.99,,,-99.99,,2013-08-09 11:22:00,
2013-08-09 07:33:00,62.0,61.0,29.92,NNE,25,0.0,-999.0,95,-99.99,,,-99.99,,2013-08-09 11:33:00,
2013-08-09 07:53:00,63.0,62.0,29.93,NNE,25,0.0,-999.0,95,-99.99,,,-99.99,,2013-08-09 11:53:00,
2013-08-09 08:02:00,63.0,62.0,29.93,NNE,25,0.0,-999.0,95,-99.99,,,-99.99,,2013-08-09 12:02:00,
2013-08-09 08:12:00,63.0,62.0,29.93,NNE,25,0.0,-999.0,95,-99.99,,,-99.99,,2013-08-09 12:12:00,
2013-08-09 08:22:00,64.0,62.0,29.94,NNE,25,0.0,-999.0,94,-99.99,,,-99.99,,2013-08-09 12:22:00,
2013-08-09 08:43:00,65.0,63.0,29.94,NNE,25,0.0,-999.0,93,-99.99,,,-99.99,,2013-08-09 12:43:00,
2013-08-09 08:52:00,65.0,63.0,29.94,NNE,25,0.0,-999.0,93,-99.99,,,-99.99,,2013-08-09 12:52:00,
2013-08-09 09:01:00,65.0,63.0,29.94,NNE,25,0.0,-999.0,92,-99.99,,,-99.99,,2013-08-09 13:01:00,
2013-08-09 09:23:00,66.0,63.0,29.95,NNE,25,0.0,-999.0,91,-99.99,,,-99.99,,2013-08-09 13:23:00,
2013-08-09 09:32:00,66.0,63.0,29.95,NNE,25,0.0,-999.0,90,-99.99,,,-99.99,,2013-08-09 13:32:00,
2013-08-09 09:43:00,66.0,63.0,29.95,NNE,25,0.0,-999.0,90,-99.99,,,-99.99,,2013-08-09 13:43:00,
2013-08-09 09:52:00,66.0,63.0,29.95,NNE,25,0.0,-999.0,90,-99.99,,,-99.99,,2013-08-09 13:52:00,
2013-08-09 10:02:00,68.0,64.0,29.94,NNE,25,0.0,-999.0,87,-99.99,,,-99.99,,2013-08-09 14:02:00,
2013-08-09 10:22:00,70.0,66.0,29.94,NNE,25,0.0,-999.0,86,-99.99,,,-99.99,,2013-08-09 14:22:00,
2013-08-09 10:33:00,71.0,66.0,29.95,NNE,25,0.0,-999.0,85,-99.99,,,-99.99,,2013-08-09 14:33:00,
2013-08-09 10:43:00,71.0,66.0,29.95,NNE,25,0.0,-999.0,85,-99.99,,,-99.99,,2013-08-09 14:43:00,
2013-08-09 10:53:00,71.0,66.0,29.95,NNE,25,0.0,-999.0,85,-99.99,,,-99.99,,2013-08-09 14:53:00,
2013-08-09 11:02:00,71.0,66.0,29.96,NNE,25,0.0,-999.0,84,-99.99,,,-99.99,,2013-08-09 15:02:00,
2013-08-09 11:22:00,71.0,67.0,29.96,NNE,25,0.0,-999.0,86,-99.99,,,-99.99,,2013-08-09 15:22:00,
2013-08-09 11:33:00,72.0,67.0,29.96,NNE,25,0.0,-999.0,83,-99.99,,,-99.99,,2013-08-09 15:33:00,
2013-08-09 11:53:00,74.0,67.0,29.96,SW,223,0.0,-999.0,79,-99.99,,,-99.99,,2013-08-09 15:53:00,
2013-08-09 12:02:00,74.0,67.0,29.96,North,355,0.0,-999.0,78,-99.99,,,-99.99,,2013-08-09 16:02:00,
2013-08-09 12:22:00,75.0,66.0,29.96,NNE,27,1.0,-999.0,73,-99.99,,,-99.99,,2013-08-09 16:22:00,
2013-08-09 12:32:00,75.0,67.0,29.96,NNE,27,0.0,-999.0,76,-99.99,,,-99.99,,2013-08-09 16:32:00,
2013-08-09 12:53:00,76.0,65.0,29.96,NNE,27,0.0,-999.0,70,-99.99,,,-99.99,,2013-08-09 16:53:00,
2013-08-09 13:02:00,76.0,65.0,29.96,North,360,0.0,-999.0,70,-99.99,,,-99.99,,2013-08-09 17:02:00,
2013-08-09 13:11:00,76.0,65.0,29.96,North,360,0.0,-999.0,70,-99.99,,,-99.99,,2013-08-09 17:11:00,
2013-08-09 13:22:00,77.0,63.0,29.95,WSW,244,0.0,-999.0,63,-99.99,,,-99.99,,2013-08-09 17:22:00,
2013-08-09 13:33:00,77.0,66.0,29.96,WSW,247,0.0,-999.0,68,-99.99,,,-99.99,,2013-08-09 17:33:00,
2013-08-09 13:52:00,77.0,64.0,29.95,NNW,331,0.0,-999.0,65,-99.99,,,-99.99,,2013-08-09 17:52:00,
2013-08-09 14:01:00,78.0,63.0,29.96,SSW,205,0.0,-999.0,61,-99.99,,,-99.99,,2013-08-09 18:01:00,
2013-08-09 14:22:00,78.0,64.0,29.96,WNW,285,0.0,-999.0,63,-99.99,,,-99.99,,2013-08-09 18:22:00,
2013-08-09 14:53:00,79.0,65.0,29.96,WNW,297,0.0,-999.0,62,-99.99,,,-99.99,,2013-08-09 18:53:00,
2013-08-09 15:02:00,79.0,62.0,29.96,WNW,293,0.0,-999.0,57,-99.99,,,-99.99,,2013-08-09 19:02:00,
2013-08-09 15:22:00,81.0,64.0,29.96,WNW,292,0.0,-999.0,56,-99.99,,,-99.99,,2013-08-09 19:22:00,
2013-08-09 15:43:00,80.0,64.0,29.95,SW,217,0.0,-999.0,59,-99.99,,,-99.99,,2013-08-09 19:43:00,
2013-08-09 15:52:00,80.0,64.0,29.95,SW,217,0.0,-999.0,59,-99.99,,,-99.99,,2013-08-09 19:52:00,
2013-08-09 16:11:00,80.0,64.0,29.95,SSW,204,0.0,-999.0,59,-99.99,,,-99.99,,2013-08-09 20:11:00,
2013-08-09 16:22:00,80.0,65.0,29.95,SW,231,0.0,-999.0,61,-99.99,,,-99.99,,2013-08-09 20:22:00,
2013-08-09 16:32:00,80.0,65.0,29.95,SW,231,0.0,-999.0,61,-99.99,,,-99.99,,2013-08-09 20:32:00,
2013-08-09 16:43:00,80.0,65.0,29.94,NW,306,0.0,-999.0,60,-99.99,,,-99.99,,2013-08-09 20:43:00,
2013-08-09 16:52:00,80.0,65.0,29.94,NW,306,0.0,-999.0,60,-99.99,,,-99.99,,2013-08-09 20:52:00,
2013-08-09 17:01:00,80.0,64.0,29.94,North,355,0.0,-999.0,59,-99.99,,,-99.99,,2013-08-09 21:01:00,
2013-08-09 17:12:00,80.0,64.0,29.94,North,355,0.0,-999.0,59,-99.99,,,-99.99,,2013-08-09 21:12:00,
2013-08-09 17:22:00,80.0,66.0,29.94,WSW,242,0.0,-999.0,63,-99.99,,,-99.99,,2013-08-09 21:22:00,
2013-08-09 17:43:00,80.0,65.0,29.94,WNW,294,0.0,-999.0,61,-99.99,,,-99.99,,2013-08-09 21:43:00,
2013-08-09 17:52:00,80.0,65.0,29.94,WNW,294,0.0,-999.0,61,-99.99,,,-99.99,,2013-08-09 21:52:00,
2013-08-09 18:02:00,79.0,64.0,29.95,WNW,294,0.0,-999.0,61,-99.99,,,-99.99,,2013-08-09 22:02:00,
2013-08-09 18:11:00,79.0,64.0,29.95,WNW,294,0.0,-999.0,61,-99.99,,,-99.99,,2013-08-09 22:11:00,
2013-08-09 18:22:00,78.0,64.0,29.94,WNW,293,0.0,-999.0,63,-99.99,,,-99.99,,2013-08-09 22:22:00,
2013-08-09 18:32:00,78.0,66.0,29.95,WNW,293,0.0,-999.0,67,-99.99,,,-99.99,,2013-08-09 22:32:00,
2013-08-09 18:42:00,78.0,66.0,29.95,WNW,293,0.0,-999.0,67,-99.99,,,-99.99,,2013-08-09 22:42:00,
2013-08-09 18:52:00,78.0,66.0,29.95,WNW,293,0.0,-999.0,67,-99.99,,,-99.99,,2013-08-09 22:52:00,
2013-08-09 19:22:00,77.0,66.0,29.94,WNW,296,0.0,-999.0,68,-99.99,,,-99.99,,2013-08-09 23:22:00,
2013-08-09 19:52:00,76.0,65.0,29.93,WNW,294,0.0,-999.0,70,-99.99,,,-99.99,,2013-08-09 23:52:00,
2013-08-09 20:01:00,75.0,65.0,29.94,WNW,294,0.0,-999.0,72,-99.99,,,-99.99,,2013-08-10 00:01:00,
2013-08-09 20:22:00,75.0,65.0,29.95,WNW,294,0.0,-999.0,71,-99.99,,,-99.99,,2013-08-10 00:22:00,
2013-08-09 20:33:00,74.0,64.0,29.95,WNW,294,0.0,-999.0,72,-99.99,,,-99.99,,2013-08-10 00:33:00,
2013-08-09 20:43:00,74.0,64.0,29.95,WNW,294,0.0,-999.0,72,-99.99,,,-99.99,,2013-08-10 00:43:00,
2013-08-09 20:52:00,74.0,66.0,29.95,WNW,294,0.0,-999.0,75,-99.99,,,-99.99,,2013-08-10 00:52:00,
2013-08-09 21:01:00,74.0,66.0,29.95,WNW,294,0.0,-999.0,75,-99.99,,,-99.99,,2013-08-10 01:01:00,
2013-08-09 21:11:00,74.0,66.0,29.95,WNW,294,0.0,-999.0,75,-99.99,,,-99.99,,2013-08-10 01:11:00,
2013-08-09 21:22:00,73.0,65.0,29.95,WNW,294,0.0,-999.0,76,-99.99,,,-99.99,,2013-08-10 01:22:00,
2013-08-09 21:32:00,73.0,65.0,29.95,WNW,294,0.0,-999.0,76,-99.99,,,-99.99,,2013-08-10 01:32:00,
2013-08-09 21:43:00,73.0,65.0,29.95,WNW,294,0.0,-999.0,76,-99.99,,,-99.99,,2013-08-10 01:43:00,
2013-08-09 21:52:00,73.0,65.0,29.95,WNW,294,0.0,-999.0,76,-99.99,,,-99.99,,2013-08-10 01:52:00,
2013-08-09 22:03:00,70.0,65.0,29.96,WNW,294,0.0,-999.0,84,-99.99,,,-99.99,,2013-08-10 02:03:00,
2013-08-09 22:11:00,70.0,65.0,29.96,WNW,294,0.0,-999.0,84,-99.99,,,-99.99,,2013-08-10 02:11:00,
2013-08-09 22:21:00,70.0,65.0,29.96,WNW,294,0.0,-999.0,84,-99.99,,,-99.99,,2013-08-10 02:21:00,
2013-08-09 22:32:00,70.0,65.0,29.96,WNW,294,0.0,-999.0,84,-99.99,,,-99.99,,2013-08-10 02:32:00,
2013-08-09 22:42:00,70.0,65.0,29.96,WNW,294,0.0,-999.0,84,-99.99,,,-99.99,,2013-08-10 02:42:00,
2013-08-09 23:01:00,68.0,65.0,29.97,WNW,294,0.0,-999.0,90,-99.99,,,-99.99,,2013-08-10 03:01:00,
2013-08-09 23:11:00,68.0,65.0,29.97,WNW,294,0.0,-999.0,90,-99.99,,,-99.99,,2013-08-10 03:11:00,
2013-08-09 23:22:00,68.0,65.0,29.97,WNW,294,0.0,-999.0,90,-99.99,,,-99.99,,2013-08-10 03:22:00,
2013-08-09 23:32:00,68.0,65.0,29.97,WNW,294,0.0,-999.0,90,-99.99,,,-99.99,,2013-08-10 03:32:00,
2013-08-09 23:42:00,67.0,64.0,29.98,WNW,294,0.0,-999.0,91,-99.99,,,-99.99,,2013-08-10 03:42:00,
2013-08-09 23:52:00,67.0,64.0,29.98,WNW,294,0.0,-999.0,91,-99.99,,,-99.99,,2013-08-10 03:52:00,